EW1669 Weather Reports


time (UTC)temp
C
wind
direction
speed
KPH
gust
KPH
rain 1hr
cm
rain 24hr
cm
rain mn
cm
humidity
%
barometer
mb
20260902034346 25 324 0.0 0.0 0.00 0.00 0.00 51 1020.4
20260902033844 25 323 0.0 0.0 0.00 0.00 0.00 51 1020.4
20260902033343 25 315 0.0 0.0 0.00 0.00 0.00 52 1020.4
20260902032841 25 315 0.0 0.0 0.00 0.00 0.00 52 1020.4
20260902032339 25 315 0.0 0.0 0.00 0.00 0.00 52 1020.0
20260902031835 25 311 0.0 0.0 0.00 0.00 0.00 52 1020.4
20260902031335 25 270 0.0 0.0 0.00 0.00 0.00 53 1020.4
20260902031047 25 270 0.0 0.0 0.00 0.00 0.00 52 1020.0
20260902030321 25 270 0.0 0.0 0.00 0.00 0.00 52 1020.0
20260902025815 25 270 0.0 0.0 0.00 0.00 0.00 52 1020.0
20260902025306 25 270 0.0 0.0 0.00 0.00 0.00 52 1020.0
20260902024752 24 270 0.0 0.0 0.00 0.00 0.00 52 1020.0
20260902024250 25 270 0.0 0.0 0.00 0.00 0.00 52 1020.0
20260902023737 25 270 0.0 0.0 0.00 0.00 0.00 51 1020.0
20260902023234 25 270 0.0 0.0 0.00 0.00 0.00 51 1020.0
20260902022731 25 270 0.0 0.0 0.00 0.00 0.00 51 1019.7
20260902022230 25 269 0.0 0.0 0.00 0.00 0.00 52 1019.7
20260902021710 25 269 0.0 0.0 0.00 0.00 0.00 52 1019.7
20260902021204 25 269 0.0 0.0 0.00 0.00 0.00 51 1019.7
20260902020643 25 269 0.0 0.0 0.00 0.00 0.00 51 1019.4
20260902020142 25 255 0.0 0.0 0.00 0.00 0.00 51 1019.4
20260902015638 25 262 0.0 0.0 0.00 0.00 0.00 51 1019.0
20260902015132 25 258 0.0 0.0 0.00 0.00 0.00 51 1019.4
20260902014632 25 292 0.0 11.3 0.00 0.00 0.00 51 1019.0
20260902014111 25 316 0.0 11.3 0.00 0.00 0.00 51 1019.4
20260902014054 25 305 0.0 1.6 0.00 0.00 0.00 51 1019.4
20260902013320 25 256 0.0 14.5 0.00 0.00 0.00 52 1019.0
20260902012541 25 312 0.0 14.5 0.00 0.00 0.00 51 1019.0
20260902012036 26 226 0.0 11.3 0.00 0.00 0.00 50 1019.0
20260902011530 26 207 1.6 11.3 0.00 0.00 0.00 49 1019.4
20260902011015 26 227 0.0 12.9 0.00 0.00 0.00 47 1019.4
20260902010505 27 230 1.6 12.9 0.00 0.00 0.00 46 1019.0
20260902005944 28 209 0.0 6.4 0.00 0.00 0.00 43 1019.0
20260902005414 31 213 0.0 12.9 0.00 0.00 0.00 34 1019.4
20260902005344 31 132 1.6 12.9 0.00 0.00 0.00 30 1018.3
20260902004352 31 119 1.6 11.3 0.00 0.00 0.00 30 1018.7
20260902003847 31 133 6.4 11.3 0.00 0.00 0.00 29 1018.3
20260902003347 31 138 0.0 16.1 0.00 0.00 0.00 29 1018.3
20260902002841 31 132 0.0 16.1 0.00 0.00 0.00 29 1018.3
20260902002336 31 151 0.0 16.1 0.00 0.00 0.00 29 1018.3
20260902001815 31 155 3.2 14.5 0.00 0.00 0.00 29 1018.3
20260902001310 31 164 3.2 14.5 0.00 0.00 0.00 29 1018.3
20260902000805 31 119 0.0 12.9 0.00 0.00 0.00 29 1018.3
20260902000258 32 130 0.0 17.7 0.00 0.00 0.00 29 1018.0
20260901235747 32 145 0.0 17.7 0.00 0.00 0.00 29 1018.0
20260901235242 32 144 3.2 20.9 0.00 0.00 0.00 28 1018.3
20260901234732 32 142 11.3 20.9 0.00 0.00 0.00 28 1018.0
20260901234216 32 175 1.6 17.7 0.00 0.00 0.00 28 1018.3
20260901233713 32 118 1.6 17.7 0.00 0.00 0.00 28 1018.0
20260901233212 32 157 11.3 22.5 0.00 0.00 0.00 28 1018.0
20260901232714 32 126 1.6 22.5 0.00 0.00 0.00 28 1018.3
20260901232439 32 94 1.6 20.9 0.00 0.00 0.00 28 1018.0
20260901231713 32 117 11.3 20.9 0.00 0.00 0.00 28 1018.3
20260901231211 32 134 14.5 16.1 0.00 0.00 0.00 29 1018.3
20260901230702 32 106 0.0 20.9 0.00 0.00 0.00 29 1018.3
20260901230203 32 137 0.0 20.9 0.00 0.00 0.00 29 1018.3
20260901225930 32 213 0.0 14.5 0.00 0.00 0.00 27 1018.0
20260901225425 33 90 0.0 11.3 0.00 0.00 0.00 27 1018.0
20260901224645 33 132 4.8 6.4 0.00 0.00 0.00 27 1018.0
20260901224623 33 130 0.0 14.5 0.00 0.00 0.00 27 1018.0
20260901223629 33 120 1.6 16.1 0.00 0.00 0.00 27 1018.3
20260901223123 33 128 0.0 12.9 0.00 0.00 0.00 26 1018.0
20260901222614 33 112 0.0 4.8 0.00 0.00 0.00 26 1018.3
20260901222321 33 134 0.0 6.4 0.00 0.00 0.00 27 1018.3
20260901221555 33 114 3.2 22.5 0.00 0.00 0.00 27 1018.0
20260901221046 33 117 3.2 22.5 0.00 0.00 0.00 26 1018.3
20260901220545 33 97 0.0 9.7 0.00 0.00 0.00 26 1018.3
20260901220034 33 124 0.0 20.9 0.00 0.00 0.00 28 1018.3
20260901215533 33 147 9.7 20.9 0.00 0.00 0.00 28 1018.3
20260901215011 33 126 9.7 20.9 0.00 0.00 0.00 28 1018.3
20260901214505 33 161 0.0 20.9 0.00 0.00 0.00 27 1018.3
20260901214002 33 129 4.8 20.9 0.00 0.00 0.00 27 1018.7
20260901213501 32 104 0.0 16.1 0.00 0.00 0.00 27 1018.7
20260901213002 32 134 1.6 12.9 0.00 0.00 0.00 28 1018.7
20260901212455 32 164 0.0 14.5 0.00 0.00 0.00 28 1018.7
20260901211950 32 164 9.7 16.1 0.00 0.00 0.00 28 1019.0
20260901211445 32 150 0.0 16.1 0.00 0.00 0.00 29 1019.0
20260901210935 32 140 6.4 14.5 0.00 0.00 0.00 29 1019.0
20260901210432 32 158 0.0 16.1 0.00 0.00 0.00 29 1019.4
20260901205931 32 129 0.0 16.1 0.00 0.00 0.00 28 1019.4
20260901205427 33 144 0.0 11.3 0.00 0.00 0.00 27 1019.4
20260901205353 33 170 0.0 9.7 0.00 0.00 0.00 28 1019.7
20260901204409 32 324 0.0 12.9 0.00 0.00 0.00 29 1019.4
20260901203908 33 75 0.0 12.9 0.00 0.00 0.00 28 1019.4
20260901203352 32 128 0.0 20.9 0.00 0.00 0.00 29 1019.7
20260901202838 31 136 0.0 20.9 0.00 0.00 0.00 30 1019.7
20260901202817 32 126 11.3 20.9 0.00 0.00 0.00 30 1019.7
20260901201828 33 133 1.6 14.5 0.00 0.00 0.00 28 1019.7
20260901201318 33 209 0.0 9.7 0.00 0.00 0.00 29 1020.0
20260901200809 32 129 0.0 11.3 0.00 0.00 0.00 29 1020.0
20260901200300 32 165 0.0 12.9 0.00 0.00 0.00 29 1019.7
20260901195753 31 114 4.8 25.7 0.00 0.00 0.00 31 1020.0
20260901195243 31 138 17.7 25.7 0.00 0.00 0.00 32 1020.0
20260901194744 31 136 0.0 4.8 0.00 0.00 0.00 31 1020.0
20260901194234 31 122 0.0 14.5 0.00 0.00 0.00 31 1020.0
20260901193723 32 135 0.0 14.5 0.00 0.00 0.00 30 1020.4
20260901193706 31 184 0.0 11.3 0.00 0.00 0.00 31 1020.0
20260901192906 31 133 6.4 16.1 0.00 0.00 0.00 31 1020.4
20260901192755 32 140 0.0 16.1 0.00 0.00 0.00 30 1020.0
20260901191906 32 163 1.6 12.9 0.00 0.00 0.00 30 1020.4
20260901191142 32 139 0.0 20.9 0.00 0.00 0.00 29 1020.4
20260901190635 32 179 0.0 20.9 0.00 0.00 0.00 30 1020.7
20260901190334 32 199 1.6 16.1 0.00 0.00 0.00 30 1020.7
20260901185611 32 115 0.0 14.5 0.00 0.00 0.00 30 1020.4
20260901185328 32 140 12.9 17.7 0.00 0.00 0.00 31 1020.4
20260901184827 32 104 1.6 20.9 0.00 0.00 0.00 30 1021.1
20260901184057 32 161 0.0 20.9 0.00 0.00 0.00 30 1020.7
20260901183557 31 100 9.7 20.9 0.00 0.00 0.00 31 1021.1
20260901183058 31 136 1.6 24.1 0.00 0.00 0.00 32 1020.7
20260901182558 31 129 0.0 14.5 0.00 0.00 0.00 32 1021.1
20260901182051 31 137 4.8 22.5 0.00 0.00 0.00 32 1021.1
20260901181548 31 128 8.0 22.5 0.00 0.00 0.00 31 1021.1
20260901181037 31 102 0.0 16.1 0.00 0.00 0.00 32 1021.1
20260901180519 31 102 8.0 14.5 0.00 0.00 0.00 32 1021.1
20260901180009 31 117 3.2 16.1 0.00 0.00 0.00 31 1021.4
20260901175501 31 145 1.6 16.1 0.00 0.00 0.00 32 1021.4
20260901174959 31 157 6.4 29.0 0.00 0.00 0.00 33 1021.1
20260901174451 31 118 9.7 29.0 0.00 0.00 0.00 33 1021.7
20260901174214 30 131 0.0 20.9 0.00 0.00 0.00 34 1021.4
20260901173444 31 81 0.0 22.5 0.00 0.00 0.00 33 1021.4
20260901172939 30 140 9.7 22.5 0.00 0.00 0.00 35 1021.7
20260901172434 31 114 0.0 17.7 0.00 0.00 0.00 34 1021.7
20260901171934 30 125 6.4 17.7 0.00 0.00 0.00 35 1021.7
20260901171426 30 129 1.6 20.9 0.00 0.00 0.00 37 1021.7
20260901170915 30 155 1.6 22.5 0.00 0.00 0.00 38 1021.7
20260901170415 30 109 1.6 25.7 0.00 0.00 0.00 37 1021.7
20260901165900 29 120 9.7 25.7 0.00 0.00 0.00 38 1021.7
20260901165357 30 147 3.2 25.7 0.00 0.00 0.00 40 1021.7
20260901164858 29 134 12.9 25.7 0.00 0.00 0.00 42 1022.1
20260901164338 29 141 3.2 25.7 0.00 0.00 0.00 43 1021.7
20260901163835 28 114 1.6 25.7 0.00 0.00 0.00 41 1021.7
20260901163331 28 133 6.4 20.9 0.00 0.00 0.00 42 1021.7
20260901162826 28 130 14.5 16.1 0.00 0.00 0.00 44 1021.7
20260901162318 28 126 1.6 20.9 0.00 0.00 0.00 46 1021.7
20260901161812 28 113 12.9 20.9 0.00 0.00 0.00 46 1021.7
20260901161304 27 147 1.6 24.1 0.00 0.00 0.00 47 1022.1
20260901160757 28 154 9.7 24.1 0.00 0.00 0.00 47 1021.7
20260901160236 28 183 0.0 20.9 0.00 0.00 0.00 47 1021.7
20260901155735 27 155 12.9 17.7 0.00 0.00 0.00 48 1021.7
20260901155452 27 139 1.6 20.9 0.00 0.00 0.00 48 1021.7
20260901154717 27 138 4.8 20.9 0.00 0.00 0.00 50 1022.1
20260901154207 26 134 6.4 20.9 0.00 0.00 0.00 51 1021.7
20260901153704 26 121 12.9 20.9 0.00 0.00 0.00 51 1021.7
20260901153155 26 207 0.0 16.1 0.00 0.00 0.00 52 1022.1
20260901152645 26 180 0.0 20.9 0.00 0.00 0.00 51 1021.7
20260901152135 26 155 12.9 20.9 0.00 0.00 0.00 52 1021.7
20260901151632 26 112 3.2 20.9 0.00 0.00 0.00 53 1021.7
20260901151129 26 139 0.0 24.1 0.00 0.00 0.00 51 1022.1
20260901150623 26 127 12.9 24.1 0.00 0.00 0.00 52 1021.7
20260901150114 25 130 6.4 22.5 0.00 0.00 0.00 53 1021.7
20260901145613 25 191 0.0 16.1 0.00 0.00 0.00 54 1021.7
20260901145100 24 139 0.0 16.1 0.00 0.00 0.00 55 1021.7
20260901144551 24 117 0.0 11.3 0.00 0.00 0.00 55 1021.7
20260901144036 24 149 1.6 14.5 0.00 0.00 0.00 56 1022.1
20260901143536 23 174 0.0 14.5 0.00 0.00 0.00 56 1022.1
20260901143030 23 163 1.6 16.1 0.00 0.00 0.00 57 1022.1
20260901142527 23 130 0.0 16.1 0.00 0.00 0.00 58 1022.1
20260901142019 22 162 1.6 11.3 0.00 0.00 0.00 58 1022.1
20260901141514 22 130 0.0 0.0 0.00 0.00 0.00 59 1022.1
20260901141005 21 183 0.0 4.8 0.00 0.00 0.00 60 1021.7
20260901140729 21 189 0.0 6.4 0.00 0.00 0.00 60 1022.1
20260901135953 21 153 0.0 6.4 0.00 0.00 0.00 60 1021.7
20260901135435 21 158 0.0 12.9 0.00 0.00 0.00 60 1021.7
20260901134915 21 110 1.6 12.9 0.00 0.00 0.00 60 1021.7
20260901134411 22 141 8.0 12.9 0.00 0.00 0.00 59 1021.7
20260901133902 22 107 0.0 9.7 0.00 0.00 0.00 58 1021.4
20260901133358 21 121 0.0 3.2 0.00 0.00 0.00 59 1021.4
20260901132855 21 121 0.0 4.8 0.00 0.00 0.00 59 1021.7
20260901132351 21 125 0.0 4.8 0.00 0.00 0.00 60 1021.7
20260901131834 21 104 0.0 1.6 0.00 0.00 0.00 60 1021.7
20260901131328 21 107 0.0 3.2 0.00 0.00 0.00 60 1021.4
20260901130827 20 115 1.6 3.2 0.00 0.00 0.00 60 1021.4
20260901130323 20 81 0.0 3.2 0.00 0.00 0.00 61 1021.4
20260901125812 20 113 0.0 3.2 0.00 0.00 0.00 61 1021.1
20260901125301 20 111 0.0 0.0 0.00 0.00 0.00 61 1021.1
20260901124758 20 128 0.0 0.0 0.00 0.00 0.00 60 1021.4
20260901124250 20 112 0.0 0.0 0.00 0.00 0.00 60 1021.4
20260901123747 20 113 0.0 0.0 0.00 0.00 0.00 60 1021.4
20260901123234 20 110 0.0 0.0 0.00 0.00 0.00 60 1021.1
20260901122726 20 99 0.0 0.0 0.00 0.00 0.00 60 1021.1
20260901122225 20 102 0.0 0.0 0.00 0.00 0.00 59 1021.1
20260901121708 20 106 0.0 0.0 0.00 0.00 0.00 59 1021.1
20260901121155 21 109 0.0 0.0 0.00 0.00 0.00 59 1020.7
20260901120911 21 111 0.0 0.0 0.00 0.00 0.00 58 1020.7
20260901120411 21 111 0.0 0.0 0.00 0.00 0.00 58 1021.1
20260901115641 20 109 0.0 0.0 0.00 0.00 0.00 59 1020.7
20260901115132 20 109 0.0 0.0 0.00 0.00 0.00 58 1021.1
20260901114843 20 113 0.0 1.6 0.00 0.00 0.00 58 1021.1
20260901114334 21 114 0.0 4.8 0.00 0.00 0.00 58 1020.7
20260901113612 21 112 0.0 4.8 0.00 0.00 0.00 58 1020.7
20260901113114 21 112 4.8 4.8 0.00 0.00 0.00 58 1021.1
20260901112603 21 116 0.0 0.0 0.00 0.00 0.00 57 1020.7
20260901112100 21 115 0.0 0.0 0.00 0.00 0.00 57 1020.7
20260901111558 21 119 0.0 0.0 0.00 0.00 0.00 57 1020.7
20260901111058 21 112 0.0 1.6 0.00 0.00 0.00 57 1021.1
20260901110552 21 110 0.0 1.6 0.00 0.00 0.00 56 1020.7
20260901110257 21 106 0.0 0.0 0.00 0.00 0.00 56 1020.7
20260901105527 21 110 0.0 0.0 0.00 0.00 0.00 56 1020.7
20260901105017 21 114 0.0 0.0 0.00 0.00 0.00 56 1020.4
20260901104515 21 106 0.0 0.0 0.00 0.00 0.00 56 1021.1
20260901103515 21 114 0.0 0.0 0.00 0.00 0.00 56 1020.7
20260901103004 21 107 0.0 0.0 0.00 0.00 0.00 56 1020.7
20260901102454 21 111 0.0 0.0 0.00 0.00 0.00 56 1020.4
20260901101952 21 110 0.0 0.0 0.00 0.00 0.00 56 1020.7
20260901101443 21 104 0.0 0.0 0.00 0.00 0.00 56 1020.4
20260901100935 21 106 0.0 0.0 0.00 0.00 0.00 56 1020.7
20260901100425 21 106 0.0 0.0 0.00 0.00 0.00 56 1020.7
20260901095926 21 107 0.0 0.0 0.00 0.00 0.00 56 1020.4
20260901095415 21 107 0.0 1.6 0.00 0.00 0.00 55 1020.7
20260901094914 21 107 0.0 1.6 0.00 0.00 0.00 55 1020.7
20260901094412 21 108 0.0 0.0 0.00 0.00 0.00 54 1020.7
20260901093910 21 114 0.0 0.0 0.00 0.00 0.00 54 1020.7
20260901093412 21 120 0.0 0.0 0.00 0.00 0.00 54 1020.7
20260901093130 21 121 0.0 0.0 0.00 0.00 0.00 54 1021.1
20260901092634 21 117 0.0 0.0 0.00 0.00 0.00 53 1020.4
20260901091856 21 120 0.0 0.0 0.00 0.00 0.00 53 1020.7
20260901091355 21 123 0.0 0.0 0.00 0.00 0.00 52 1020.4
20260901090835 22 117 0.0 0.0 0.00 0.00 0.00 52 1020.7
20260901090531 22 115 0.0 0.0 0.00 0.00 0.00 52 1020.7
20260901085811 22 117 0.0 0.0 0.00 0.00 0.00 52 1020.7
20260901085305 22 108 0.0 4.8 0.00 0.00 0.00 51 1020.7
20260901084800 22 116 0.0 4.8 0.00 0.00 0.00 51 1020.7
20260901084249 22 128 0.0 1.6 0.00 0.00 0.00 51 1020.4
20260901083736 22 133 0.0 1.6 0.00 0.00 0.00 50 1020.7
20260901083234 22 123 0.0 1.6 0.00 0.00 0.00 50 1020.4
20260901082735 22 120 0.0 3.2 0.00 0.00 0.00 50 1020.4
20260901082501 22 117 0.0 3.2 0.00 0.00 0.00 50 1020.0
20260901081715 22 115 0.0 4.8 0.00 0.00 0.00 50 1020.4
20260901081215 22 119 0.0 6.4 0.00 0.00 0.00 50 1020.7
20260901080715 22 108 0.0 6.4 0.00 0.00 0.00 50 1020.4
20260901080203 22 118 0.0 6.4 0.00 0.00 0.00 50 1020.4
20260901075656 22 125 0.0 4.8 0.00 0.00 0.00 49 1020.0
20260901075417 22 136 0.0 4.8 0.00 0.00 0.00 49 1020.0
20260901074647 23 128 0.0 3.2 0.00 0.00 0.00 49 1020.0
20260901074143 23 109 0.0 9.7 0.00 0.00 0.00 48 1020.4
20260901073619 23 115 1.6 11.3 0.00 0.00 0.00 48 1020.4
20260901073114 23 134 0.0 14.5 0.00 0.00 0.00 47 1020.4
20260901072613 23 92 3.2 14.5 0.00 0.00 0.00 47 1020.0
20260901072114 23 122 1.6 12.9 0.00 0.00 0.00 47 1020.4
20260901071614 23 115 1.6 6.4 0.00 0.00 0.00 47 1020.4
20260901071110 23 126 1.6 6.4 0.00 0.00 0.00 46 1020.4
20260901070834 23 106 0.0 4.8 0.00 0.00 0.00 46 1020.4
20260901070324 23 132 0.0 4.8 0.00 0.00 0.00 45 1020.7
20260901065601 23 108 0.0 4.8 0.00 0.00 0.00 45 1020.0
20260901065100 23 125 0.0 4.8 0.00 0.00 0.00 45 1020.4
20260901064811 23 112 0.0 4.8 0.00 0.00 0.00 45 1020.4
20260901064047 23 111 0.0 9.7 0.00 0.00 0.00 45 1020.4
20260901063753 23 114 1.6 9.7 0.00 0.00 0.00 44 1020.4
20260901063009 23 136 1.6 9.7 0.00 0.00 0.00 44 1020.0
20260901062504 23 131 0.0 11.3 0.00 0.00 0.00 44 1020.0
20260901062228 24 113 0.0 11.3 0.00 0.00 0.00 44 1020.4
20260901061459 24 120 0.0 9.7 0.00 0.00 0.00 44 1020.4
20260901061224 24 120 0.0 9.7 0.00 0.00 0.00 43 1020.4
20260901060436 24 119 0.0 4.8 0.00 0.00 0.00 43 1020.4
20260901055931 24 121 1.6 3.2 0.00 0.00 0.00 43 1020.4
20260901055430 24 112 0.0 9.7 0.00 0.00 0.00 42 1020.7
20260901054921 24 100 1.6 6.4 0.00 0.00 0.00 42 1020.4
20260901054421 25 122 0.0 6.4 0.00 0.00 0.00 42 1020.4
20260901053901 25 120 0.0 12.9 0.00 0.00 0.00 42 1020.4
20260901053359 25 119 0.0 12.9 0.00 0.00 0.00 42 1020.0
20260901052847 25 112 0.0 12.9 0.00 0.00 0.00 41 1020.7
20260901052340 25 135 0.0 12.9 0.00 0.00 0.00 41 1020.4
20260901052054 25 115 0.0 6.4 0.00 0.00 0.00 41 1020.4
20260901051327 25 100 1.6 6.4 0.00 0.00 0.00 41 1021.1
20260901050819 25 122 0.0 14.5 0.00 0.00 0.00 41 1020.7
20260901050306 25 119 1.6 14.5 0.00 0.00 0.00 41 1020.4
20260901045756 25 128 0.0 16.1 0.00 0.00 0.00 40 1020.7
20260901045253 25 133 1.6 16.1 0.00 0.00 0.00 40 1020.7
20260901044753 25 122 1.6 12.9 0.00 0.00 0.00 39 1020.7
20260901044249 25 142 0.0 14.5 0.00 0.00 0.00 39 1020.4
20260901043745 26 111 0.0 14.5 0.00 0.00 0.00 39 1020.4
20260901043240 26 100 3.2 11.3 0.00 0.00 0.00 38 1020.7
20260901042735 26 108 0.0 9.7 0.00 0.00 0.00 38 1020.7
20260901042228 26 131 0.0 9.7 0.00 0.00 0.00 37 1020.4
20260901041726 26 134 1.6 9.7 0.00 0.00 0.00 37 1020.7
20260901041213 26 119 0.0 14.5 0.00 0.00 0.00 37 1020.7
20260901040939 26 140 0.0 14.5 0.00 0.00 0.00 37 1020.4
20260901040204 26 143 4.8 11.3 0.00 0.00 0.00 37 1020.4
20260901035644 26 110 0.0 6.4 0.00 0.00 0.00 37 1020.4
20260901035354 27 126 0.0 6.4 0.00 0.00 0.00 36 1020.4
20260901034629 27 132 0.0 9.7 0.00 0.00 0.00 36 1020.4